Regional Weather Roundup
Issued by NWS

Home | Current Version | Previous Version | Graphics & Text | Print | Product List | Glossary On
Versions: 1 2 3 4 5 6 7 8 9 10 11 12 13 14 15 16 17 18 19 20 21 22 23 24 25 26 27 28 29 30 31 32 33 34 35 36 37 38 39 40 41 42 43 44 45 46 47 48 49 50
000
ASUS45 KABQ 260210
RWRNM
NEW MEXICO REGIONAL WEATHER ROUNDUP
NATIONAL WEATHER SERVICE ALBUQUERQUE NM
800 PM MDT WED APR 25 2018

NOTE: "FAIR" MEANS FEW OR NO CLOUDS BELOW 12,000 FEET AGL WITH NO
       SIGNIFICANT WEATHER OR OBSTRUCTIONS TO VISION.

      THIS PRODUCT IS RELEASED AS TWO VERSIONS.  ONE VERSION NEAR
      THE TOP OF THE HOUR CONTAINING PRELIMINARY DATA FROM ALBUQUERQUE
      AND OTHER STATIONS.  A FINAL VERSION WITH ADDITIONAL DATA IS
      ISSUED ABOUT 10 MINUTES AFTER THE HOUR.

NMZ501-503-504-510>518-260300-
NORTHWEST PLATEAU/NORTHCENTRAL MOUNTAINS

CITY           SKY/WX    TMP DP  RH WIND       PRES   REMARKS
FARMINGTON     FAIR      66  -9   5 W10       30.09F
LOS ALAMOS     FAIR      60  23  24 S7        30.19S
SANTA FE       FAIR      62  22  21 S3        30.13S
TAOS           FAIR      58  20  22 SW8       30.18S
ANGEL FIRE     FAIR      47  29  49 S10       30.24S

$$
NMZ402-403-502-505>509-260300-
WESTCENTRAL MOUNTAINS/SOUTHWEST MOUNTAINS

CITY           SKY/WX    TMP DP  RH WIND       PRES   REMARKS
GALLUP         FAIR      68   9  10 W9        30.15R
GRANTS         FAIR      65  26  22 SE13      30.17R
SILVER CITY    FAIR      73  16  11 SW6       30.10R

$$
NMZ407-409-411-412-260300-
SOUTHERN DESERTS

CITY           SKY/WX    TMP DP  RH WIND       PRES   REMARKS
DEMING         FAIR      75  31  19 SE8       30.04F
LAS CRUCES     FAIR      71  32  23 SE9       30.09F
HOLLOMAN AFB   FAIR      70  35  28 SE17      30.10S
ALAMOGORDO     FAIR      66  36  32 S12       30.10R
T OR C         FAIR      75  30  19 S8        30.06F

$$
NMZ519>523-260300-
CENTRAL VALLEYS/CENTRAL HIGHLANDS

CITY           SKY/WX    TMP DP  RH WIND       PRES   REMARKS
ALBUQUERQUE    FAIR      70  28  21 SW7       30.10S
DOUBLE EAGLE   PTCLDY    63  27  25 VRB6      30.13F
MORIARTY ARPT  FAIR      61  30  31 SE8       30.17S
CLINES CORNERS FAIR      54  29  38 S13       30.22S
BELEN          FAIR      69  26  20 NE3       30.09S
SOCORRO        FAIR      71  25  18 S6        30.08S

$$
NMZ524>526-539-540-260300-
SOUTHCENTRAL MOUNTAINS

CITY           SKY/WX    TMP DP  RH WIND       PRES   REMARKS
RUIDOSO        NOT AVBL

$$
NMZ527>531-260300-
NORTHEAST HIGHLANDS/NORTHEAST PLAINS

CITY           SKY/WX    TMP DP  RH WIND       PRES   REMARKS
LAS VEGAS      FAIR      50  28  42 S9        30.19S
RATON          FAIR      54  12  18 SE9       30.14S
CLAYTON        FAIR      47  29  49 E8        30.13S

$$
NMZ532>537-260300-
EASTCENTRAL PLAINS

CITY           SKY/WX    TMP DP  RH WIND       PRES   REMARKS
SANTA ROSA     FAIR      58  27  30 SE8       30.13F
TUCUMCARI      FAIR      57  32  38 S7        30.10F
CANNON AFB     FAIR      56  28  33 CALM      30.16F
CLOVIS AIRPORT FAIR      56  25  30 E3        30.17S

$$
NMZ028-029-538-260300-
SOUTHEAST PLAINS

CITY           SKY/WX    TMP DP  RH WIND       PRES   REMARKS
ROSWELL        FAIR      60  35  39 S6        30.13F
ARTESIA        FAIR      61  36  39 SW8       30.15F
CARLSBAD       FAIR      57  36  45 SW7       30.15S
HOBBS          FAIR      61  34  36 E6        30.16R


$$




USA.gov is the U.S. government's official web portal to all federal, state and local government web resources and services.